This is the latest recevied weather packets stored in our database for station/object KC8SWY-15. If no packets are shown the sender has not sent any weather packets the latest 10 day(s).
| Time | Temp. | Humidity | Pressure | Rain* | Wind** | Luminosity | Snow |
|---|---|---|---|---|---|---|---|
| 1788106850 | 20° C | 92% | 1016.2 hPa | 1.27 mm | - | - | - |
| 1788106734 | 20° C | 92% | 1016.2 hPa | 1.52 mm | - | - | - |
| 1788106550 | 20° C | 92% | 1016.2 hPa | 1.52 mm | - | - | - |
| 1788106250 | 19.44° C | 93% | 1016.1 hPa | 1.78 mm | - | - | - |
| 1788105950 | 19.44° C | 93% | 1016 hPa | 2.03 mm | - | - | - |
| 1788105650 | 19.44° C | 93% | 1016.2 hPa | 2.29 mm | - | - | - |
| 1788105350 | 18.89° C | 93% | 1016.2 hPa | 2.79 mm | - | - | - |
| 1788105050 | 18.89° C | 93% | 1016.4 hPa | 3.3 mm | - | - | - |
| 1788104750 | 18.89° C | 93% | 1016.4 hPa | 3.56 mm | - | - | - |
| 1788104450 | 18.89° C | 93% | 1016.8 hPa | 3.3 mm | - | - | - |
| 1788104150 | 18.89° C | 93% | 1017 hPa | 3.56 mm | - | - | - |
| 1788103850 | 18.89° C | 93% | 1017.1 hPa | 3.81 mm | - | - | - |
| 1788103550 | 18.89° C | 93% | 1017.6 hPa | 4.06 mm | - | - | - |
| 1788103250 | 18.89° C | 93% | 1017.7 hPa | 4.06 mm | - | - | - |
| 1788102950 | 18.89° C | 93% | 1018 hPa | 3.81 mm | - | - | - |
| 1788102650 | 18.89° C | 93% | 1017.7 hPa | 4.06 mm | - | - | - |
| 1788102350 | 18.89° C | 93% | 1017.5 hPa | 3.81 mm | - | - | - |
| 1788102138 | 18.89° C | 93% | 1017.7 hPa | 3.81 mm | - | - | - |
| 1788102050 | 18.89° C | 93% | 1017.7 hPa | 3.81 mm | - | - | - |
| 1788101750 | 18.89° C | 93% | 1017.7 hPa | 3.56 mm | - | - | - |
| 1788101450 | 18.89° C | 93% | 1017.9 hPa | 3.3 mm | - | - | - |
| 1788101150 | 18.89° C | 93% | 1018.2 hPa | 3.3 mm | - | - | - |
| 1788100850 | 18.89° C | 93% | 1018.3 hPa | 2.79 mm | - | - | - |
| 1788100550 | 18.89° C | 93% | 1018.3 hPa | 2.79 mm | - | - | - |
| 1788100250 | 18.89° C | 93% | 1018.4 hPa | 2.54 mm | - | - | - |
* Rain latest hour (hover to see other rain measurements)
** Current wind speed in m/s (hover to see current wind gust speed)